| time (UTC) | temp F | wind direction | speed MPH | gust MPH | rain 1hr in | rain 24hr in | rain mn in | humidity % | barometer mb |
| 20260503194622 | 61 | 0 | 0.0 | 0.0 | 0.00 | 0.00 | 0.00 | 69 | 1019.8 |
| 20260503193058 | 62 | 0 | 0.0 | 0.0 | 0.00 | 0.00 | 0.00 | 68 | 1019.6 |
| 20260503191604 | 62 | 0 | 0.0 | 0.0 | 0.00 | 0.00 | 0.00 | 68 | 1019.6 |
| 20260503184600 | 64 | 0 | 0.0 | 0.0 | 0.00 | 0.00 | 0.00 | 65 | 1019.5 |
| 20260503183106 | 65 | 0 | 0.0 | 0.0 | 0.00 | 0.00 | 0.00 | 63 | 1019.3 |
| 20260503181601 | 67 | 0 | 0.0 | 0.0 | 0.00 | 0.00 | 0.00 | 59 | 1019.3 |
| 20260503180109 | 69 | 0 | 0.0 | 0.0 | 0.00 | 0.00 | 0.00 | 56 | 1019.3 |
| 20260503174600 | 70 | 0 | 0.0 | 0.0 | 0.00 | 0.00 | 0.00 | 53 | 1019.2 |
| 20260503173205 | 72 | 0 | 0.0 | 1.0 | 0.00 | 0.00 | 0.00 | 54 | 1019.4 |
| 20260503171606 | 74 | 0 | 0.0 | 1.0 | 0.00 | 0.00 | 0.00 | 49 | 1019.4 |
| 20260503170110 | 77 | 0 | 0.0 | 2.0 | 0.00 | 0.00 | 0.00 | 43 | 1019.4 |
| 20260503160105 | 84 | 0 | 0.0 | 1.0 | 0.00 | 0.00 | 0.00 | 37 | 1019.6 |
| 20260503130110 | 81 | 0 | 0.0 | 2.0 | 0.00 | 0.00 | 0.00 | 48 | 1020.8 |
| 20260503120109 | 77 | 139 | 0.0 | 2.0 | 0.00 | 0.00 | 0.00 | 53 | 1021.1 |
| 20260503100113 | 74 | 0 | 0.0 | 3.0 | 0.00 | 0.00 | 0.00 | 38 | 1021.9 |
| 20260503090104 | 72 | 0 | 0.0 | 3.0 | 0.00 | 0.00 | 0.00 | 42 | 1022.1 |
| 20260503081600 | 68 | 146 | 0.0 | 2.0 | 0.00 | 0.00 | 0.00 | 47 | 1022.4 |
| 20260503071602 | 62 | 0 | 0.0 | 1.0 | 0.00 | 0.00 | 0.00 | 64 | 1022.7 |
| 20260503060104 | 54 | 0 | 0.0 | 0.0 | 0.00 | 0.00 | 0.00 | 74 | 1022.6 |
| 20260503054603 | 53 | 0 | 0.0 | 0.0 | 0.00 | 0.00 | 0.00 | 75 | 1022.4 |
| 20260503053058 | 52 | 0 | 0.0 | 1.0 | 0.00 | 0.00 | 0.00 | 77 | 1022.6 |
| 20260503051600 | 51 | 0 | 0.0 | 0.0 | 0.00 | 0.00 | 0.00 | 76 | 1022.5 |
| 20260503050059 | 50 | 0 | 0.0 | 0.0 | 0.00 | 0.00 | 0.00 | 78 | 1022.5 |
| 20260503044559 | 49 | 0 | 0.0 | 0.0 | 0.00 | 0.00 | 0.00 | 77 | 1022.4 |
| 20260503043102 | 48 | 0 | 0.0 | 0.0 | 0.00 | 0.00 | 0.00 | 78 | 1022.5 |
| 20260503041601 | 48 | 0 | 0.0 | 0.0 | 0.00 | 0.00 | 0.00 | 77 | 1022.4 |
| 20260503034600 | 48 | 0 | 0.0 | 1.0 | 0.00 | 0.00 | 0.00 | 77 | 1022.4 |
| 20260503033059 | 48 | 0 | 0.0 | 1.0 | 0.00 | 0.00 | 0.00 | 77 | 1022.4 |
| 20260503031610 | 48 | 0 | 0.0 | 0.0 | 0.00 | 0.00 | 0.00 | 77 | 1022.4 |
| 20260503024611 | 49 | 0 | 0.0 | 1.0 | 0.00 | 0.00 | 0.00 | 76 | 1022.4 |
| 20260503023102 | 50 | 0 | 0.0 | 1.0 | 0.00 | 0.00 | 0.00 | 75 | 1022.5 |
| 20260503021600 | 49 | 0 | 0.0 | 1.0 | 0.00 | 0.00 | 0.00 | 75 | 1022.5 |
| 20260503020104 | 50 | 0 | 0.0 | 1.0 | 0.00 | 0.00 | 0.00 | 74 | 1022.6 |
| 20260503014601 | 50 | 0 | 0.0 | 1.0 | 0.00 | 0.00 | 0.00 | 74 | 1022.7 |
| 20260503013103 | 50 | 0 | 0.0 | 1.0 | 0.00 | 0.00 | 0.00 | 73 | 1022.7 |
| 20260503011609 | 50 | 0 | 0.0 | 1.0 | 0.00 | 0.00 | 0.00 | 73 | 1022.7 |
| 20260503010104 | 50 | 0 | 0.0 | 0.0 | 0.00 | 0.00 | 0.00 | 73 | 1022.9 |
| 20260503004558 | 50 | 0 | 0.0 | 1.0 | 0.00 | 0.00 | 0.00 | 73 | 1023.1 |
| 20260503003104 | 51 | 0 | 0.0 | 0.0 | 0.00 | 0.00 | 0.00 | 72 | 1023.4 |
| 20260503001559 | 51 | 0 | 0.0 | 1.0 | 0.00 | 0.00 | 0.00 | 72 | 1023.4 |
| 20260503000110 | 51 | 0 | 0.0 | 1.0 | 0.00 | 0.00 | 0.00 | 71 | 1023.5 |
| 20260502234601 | 51 | 0 | 0.0 | 0.0 | 0.00 | 0.00 | 0.00 | 71 | 1023.7 |
| 20260502233113 | 51 | 0 | 0.0 | 0.0 | 0.00 | 0.00 | 0.00 | 71 | 1023.8 |
| 20260502231618 | 52 | 0 | 0.0 | 1.0 | 0.00 | 0.00 | 0.00 | 70 | 1023.8 |
| 20260502230059 | 52 | 0 | 0.0 | 1.0 | 0.00 | 0.00 | 0.00 | 71 | 1024.0 |
| 20260502224603 | 53 | 0 | 0.0 | 1.0 | 0.00 | 0.00 | 0.00 | 69 | 1024.2 |
| 20260502223058 | 52 | 0 | 0.0 | 0.0 | 0.00 | 0.00 | 0.00 | 69 | 1024.2 |
| 20260502221559 | 53 | 0 | 0.0 | 1.0 | 0.00 | 0.00 | 0.00 | 67 | 1024.3 |
| 20260502220101 | 54 | 0 | 0.0 | 1.0 | 0.00 | 0.00 | 0.00 | 67 | 1024.3 |
| 20260502214608 | 53 | 0 | 0.0 | 0.0 | 0.00 | 0.00 | 0.00 | 66 | 1024.3 |
| 20260502213058 | 55 | 0 | 0.0 | 1.0 | 0.00 | 0.00 | 0.00 | 67 | 1024.3 |
| 20260502211602 | 54 | 0 | 0.0 | 1.0 | 0.00 | 0.00 | 0.00 | 69 | 1024.3 |
| 20260502210100 | 54 | 0 | 0.0 | 1.0 | 0.00 | 0.00 | 0.00 | 67 | 1024.4 |
| 20260502204558 | 55 | 0 | 0.0 | 1.0 | 0.00 | 0.00 | 0.00 | 66 | 1024.4 |
| 20260502203058 | 55 | 0 | 0.0 | 0.0 | 0.00 | 0.00 | 0.00 | 65 | 1024.4 |
| 20260502201605 | 56 | 0 | 0.0 | 1.0 | 0.00 | 0.00 | 0.00 | 66 | 1024.4 |
| 20260502200059 | 57 | 0 | 0.0 | 0.0 | 0.00 | 0.00 | 0.00 | 65 | 1024.6 |